This is the latest recevied weather packets stored in our database for station/object KC4GS-13. If no packets are shown the sender has not sent any weather packets the latest 10 day(s).
| Time | Temp. | Humidity | Pressure | Rain* | Wind** | Luminosity | Snow |
|---|---|---|---|---|---|---|---|
| 1787952229 | 30° C | 76% | 1017.6 hPa | 0 mm | - | 140 W/m² | - |
| 1787951926 | 30.56° C | 75% | 1017.1 hPa | 0 mm | - | 185 W/m² | - |
| 1787951621 | 30.56° C | 75% | 1016.8 hPa | 0 mm | - | 363 W/m² | - |
| 1787951317 | 30° C | 75% | 1016.9 hPa | 0 mm | - | 357 W/m² | - |
| 1787951013 | 30° C | 75% | 1017.1 hPa | 0 mm | - | 241 W/m² | - |
| 1787950708 | 30.56° C | 75% | 1017.1 hPa | 0 mm | - | 228 W/m² | - |
| 1787950404 | 30.56° C | 74% | 1017.3 hPa | 0 mm | - | 172 W/m² | - |
| 1787950100 | 30.56° C | 73% | 1017.3 hPa | 0 mm | - | 195 W/m² | - |
| 1787949795 | 30.56° C | 75% | 1017.1 hPa | 0 mm | - | 403 W/m² | - |
| 1787949495 | 30.56° C | 74% | 1017.2 hPa | 0 mm | - | 252 W/m² | - |
| 1787949190 | 30.56° C | 73% | 1017.3 hPa | 0 mm | - | 240 W/m² | - |
| 1787948885 | 30° C | 76% | 1017.5 hPa | 0 mm | - | 526 W/m² | - |
| 1787948581 | 30° C | 76% | 1017.7 hPa | 0 mm | - | 263 W/m² | - |
| 1787948275 | 30° C | 76% | 1017.2 hPa | 0 mm | - | 230 W/m² | - |
| 1787947970 | 30° C | 76% | 1017.4 hPa | 0 mm | - | 216 W/m² | - |
| 1787947664 | 30° C | 75% | 1017.6 hPa | 0 mm | - | 287 W/m² | - |
| 1787947363 | 30° C | 76% | 1017.7 hPa | 0 mm | - | 459 W/m² | - |
| 1787947062 | 30° C | 76% | 1017.6 hPa | 0 mm | - | 393 W/m² | - |
| 1787946762 | 30° C | 76% | 1017.6 hPa | 0 mm | - | 207 W/m² | - |
| 1787946460 | 30° C | 76% | 1017.6 hPa | 0 mm | - | 225 W/m² | - |
| 1787946155 | 30° C | 75% | 1017.6 hPa | 0 mm | - | 287 W/m² | - |
| 1787945844 | 30° C | 76% | 1017.6 hPa | 0 mm | - | 392 W/m² | - |
| 1787945539 | 30° C | 77% | 1017.6 hPa | 0 mm | - | 258 W/m² | - |
| 1787945229 | 29.44° C | 78% | 1017.9 hPa | 0 mm | - | 274 W/m² | - |
| 1787944928 | 29.44° C | 78% | 1017.8 hPa | 0 mm | - | 180 W/m² | - |
* Rain latest hour (hover to see other rain measurements)
** Current wind speed in m/s (hover to see current wind gust speed)